Location: Unspecified
(49.9820°N, 20.4363°E)
Time: 22:07:12
(UTC+02:00)

Transit 2A - All Passes

Search period start: 15 May 2026 00:00
Search period end: 25 May 2026 00:00
Orbit: 594 x 950 km, 66.7° (Epoch: 15 May)

Date Brightness Start Highest point End Pass type
(mag) Time Alt. Az. Time Alt. Az. Time Alt. Az.
15 May - 00:59:47 10° NW 01:04:52 80° WSW 01:09:27 10° SSE visible
15 May - 02:45:04 10° W 02:46:51 12° WSW 02:48:35 10° SW visible
15 May - 15:41:30 10° S 15:46:59 35° ESE 15:52:09 10° NE daylight
15 May - 17:23:55 10° SW 17:29:55 56° NW 17:35:27 10° NNE daylight
15 May - 19:09:52 10° WNW 19:14:05 20° NNW 19:18:05 10° NNE daylight
15 May - 20:56:45 10° NNW 20:59:17 13° N 21:01:44 10° NNE visible
15 May - 22:40:30 10° NNW 22:44:25 21° NNE 22:48:05 10° ENE visible
16 May - 00:23:19 10° NW 00:28:26 72° NE 00:33:02 10° SE visible
16 May - 02:07:27 10° WNW 02:10:46 18° WSW 02:13:54 10° SSW visible
16 May - 15:05:52 10° SSE 15:10:44 25° ESE 15:15:21 10° ENE daylight
16 May - 16:47:16 10° SW 16:53:24 75° NW 16:59:03 10° NE daylight
16 May - 18:32:37 10° W 18:37:19 24° NNW 18:41:43 10° NNE daylight
16 May - 20:19:42 10° NW 20:22:21 13° N 20:24:54 10° NNE daylight
16 May - 22:04:06 10° NNW 22:07:36 17° NNE 22:10:54 10° ENE visible
16 May - 23:46:54 10° NNW 23:51:55 51° NE 23:56:26 10° ESE visible
17 May - 01:30:28 10° NW 01:34:37 27° WSW 01:38:27 10° S visible
17 May - 14:30:40 10° SE 14:34:33 18° ESE 14:38:17 10° ENE daylight
17 May - 16:10:49 10° SSW 16:16:57 82° SE 16:22:37 10° NE daylight
17 May - 17:55:27 10° W 18:00:35 29° NW 18:05:22 10° NNE daylight
17 May - 19:42:29 10° NW 19:45:25 14° N 19:48:14 10° NNE daylight
17 May - 21:27:40 10° NNW 21:30:44 15° NNE 21:33:40 10° NE visible
17 May - 23:10:32 10° NNW 23:15:19 38° NE 23:19:41 10° ESE visible
18 May - 00:53:45 10° NW 00:58:23 41° WSW 01:02:38 10° S visible
18 May - 13:56:21 10° ESE 13:58:25 12° ESE 14:00:28 10° E daylight
18 May - 15:34:31 10° SSW 15:40:33 60° ESE 15:46:08 10° NE daylight
18 May - 17:18:25 10° WSW 17:23:54 36° NW 17:29:00 10° NNE daylight
18 May - 19:05:11 10° NW 19:08:31 16° NNW 19:11:43 10° NNE daylight
18 May - 20:51:07 10° NNW 20:53:50 14° N 20:56:27 10° NE daylight
18 May - 22:34:09 10° NNW 22:38:39 29° NE 22:42:47 10° E visible
19 May - 00:17:09 10° NW 00:22:05 61° WSW 00:26:33 10° SSE visible
19 May - 14:58:28 10° S 15:04:12 43° ESE 15:09:34 10° NE daylight
19 May - 16:41:31 10° WSW 16:47:18 47° NW 16:52:40 10° NNE daylight
19 May - 18:27:50 10° WNW 18:31:40 18° NNW 18:35:16 10° NNE daylight
19 May - 20:14:25 10° NNW 20:16:54 13° N 20:19:18 10° NNE daylight
19 May - 21:57:48 10° NNW 22:01:56 23° NNE 22:05:45 10° E visible
19 May - 23:40:39 10° NW 23:45:42 89° WSW 23:50:15 10° SE visible
20 May - 01:25:26 10° WNW 01:27:48 14° WSW 01:30:05 10° SW visible
20 May - 14:22:39 10° S 14:27:55 31° ESE 14:32:53 10° NE daylight
20 May - 16:04:45 10° SW 16:10:45 62° NW 16:16:17 10° NNE daylight
20 May - 17:50:32 10° WNW 17:54:51 21° NNW 17:58:54 10° NNE daylight
20 May - 19:37:32 10° NNW 19:39:58 13° N 19:42:20 10° NNE daylight
20 May - 21:21:26 10° NNW 21:25:09 19° NNE 21:28:37 10° ENE visible
20 May - 23:04:13 10° NNW 23:09:14 64° NE 23:13:47 10° SE visible
21 May - 00:48:07 10° WNW 00:51:42 21° WSW 00:55:04 10° SSW visible
21 May - 13:47:09 10° SSE 13:51:41 22° ESE 13:56:01 10° ENE daylight
21 May - 15:28:10 10° SW 15:34:16 82° NW 15:39:53 10° NE daylight
21 May - 17:13:17 10° W 17:18:04 25° NNW 17:22:32 10° NNE daylight
21 May - 19:00:26 10° NW 19:03:02 13° N 19:05:33 10° NNE daylight
21 May - 20:45:02 10° NNW 20:48:18 16° NNE 20:51:24 10° ENE daylight
21 May - 22:27:49 10° NNW 22:32:42 45° NE 22:37:07 10° ESE visible
22 May - 00:11:14 10° NW 00:15:31 31° WSW 00:19:29 10° S visible
22 May - 13:12:09 10° SE 13:15:31 15° ESE 13:18:46 10° ENE daylight
22 May - 14:51:45 10° SSW 14:57:50 75° ESE 15:03:25 10° NE daylight
22 May - 16:36:10 10° W 16:41:22 31° NW 16:46:12 10° NNE daylight
22 May - 18:23:10 10° NW 18:26:07 14° NNW 18:28:57 10° NNE daylight
22 May - 20:08:34 10° NNW 20:11:26 14° NNE 20:14:09 10° NE daylight
22 May - 21:51:26 10° NNW 21:56:05 34° NE 22:00:20 10° ESE visible
22 May - 23:34:33 10° NW 23:39:16 46° WSW 23:43:34 10° S visible
23 May - 14:15:32 10° SSW 14:21:27 54° ESE 14:26:55 10° NE daylight
23 May - 15:59:09 10° WSW 16:04:43 39° NW 16:09:51 10° NNE daylight
23 May - 17:45:49 10° NW 17:49:14 16° NNW 17:52:28 10° NNE daylight
23 May - 19:32:00 10° NNW 19:34:31 13° N 19:36:56 10° NE daylight
23 May - 21:15:05 10° NNW 21:19:24 26° NNE 21:23:22 10° E visible
23 May - 22:58:00 10° NW 23:02:56 70° WSW 23:07:25 10° SSE visible
24 May - 13:39:33 10° S 13:45:07 39° ESE 13:50:19 10° NE daylight
24 May - 15:22:18 10° WSW 15:28:07 51° NW 15:33:30 10° NNE daylight
24 May - 17:08:29 10° WNW 17:12:23 18° NNW 17:16:04 10° NNE daylight
24 May - 18:55:16 10° NNW 18:57:35 13° N 18:59:50 10° NNE daylight
24 May - 20:38:44 10° NNW 20:42:39 21° NNE 20:46:18 10° ENE daylight
24 May - 22:21:31 10° NW 22:26:32 81° NE 22:31:03 10° SE visible
